Retour au catalogue

SL-8 DEB

ActifLEO
NORAD 21163·DEBRIS·🇷🇺 Russia

Lancé Feb 12, 1991 depuis Plesetsk Cosmodrome

Loading…

Prochains Passages (prochaines 24 heures)

TLE

FraisSource: Space-Track

Époque: Sep 14, 2026, 14:44 UTC

1 21163U 91009AA  26257.61456319  .00000028  00000-0  35558-3 0  9998
2 21163  73.9458  10.9983 0138336 259.1229 113.3999 12.30978378595827

Suivez SL-8 DEB en temps réel avec AllMySat

Download on the App Store